Hauptseite
METAR-TAF:

METAR-TAF

Flughäfen :

Schenectady County Airport

Schenectady, New York, Vereinigte Staaten

Breite: 42-51N, Länge: 073-56W, Höhe: 115 m

Beobachtung

Neuester Wetterbericht von vor 1 Stunde und 2 Minuten, um 00:52 UTC
Windstille
Temperatur -1°C
Luftfeuchtigkeit 80%
Luftdruck 1017 hPa
Sichtweite: 16.1 km
Geschlossene Wolkendecke in der Höhe von 4900 ft

METAR: KSCH 170052Z 00000KT 10SM OVC049 M01/M04 A3004

Zeit: 20:54 (01:54 UTC)


TAF: fehlend

Wetterbeobachtungen und Prognosen von mehr als 4000 Flughäfen (METAR und TAF Bericht).

Die verfügbaren Stationen werden durch gelbe und rote Markierungen auf der Karte dargestellt.

Führen Sie die Maus auf sie, um den Namen der Station zu sehen.

Darauf klicken, um die Beobachtung von Wetterbeobachtungen und Prognosen zu sehen.

Um die Karte zu ändern : klicken Sie auf den grünen Tasten mit einem schwarzen Kreuz Zum Vergrößern, auf den grünen Button mit einem Gedankenstrich zu verkleinern, oder auf die grünen Pfeile für benachbarte Karten.


METAR-TAF: